Weather History for KNFL - January, 2015

Change the Weather History Date:

Friday, January 23, 2015

  Actual Average Record
Temperature  
Mean Temperature 33 °F -  
Max Temperature 51 °F 45 °F 68 °F (1965)
Min Temperature 15 °F 20 °F -14 °F (1937)
Degree Days  
Heating Degree Days 32    
Moisture  
Dew Point 13 °F    
Average Humidity 49    
Maximum Humidity 70    
Minimum Humidity 24    
Precipitation  
Precipitation 0.00 in - - ()
Sea Level Pressure  
Sea Level Pressure 30.37 in    
Wind  
Wind Speed 5 mph (SSE)    
Max Wind Speed 9 mph    
Max Gust Speed -    
Visibility 10 miles    
Events      
Averages and records for this station are not official NWS values.
T = Trace of Precipitation, MM = Missing Value Source: NWS Daily Summary

Daily Weather History Graph

Daily Weather History Graph

Search for Another Location

Airport or City:

Trip Planner

Search our weather history database for the weather conditions in past years. The results will help you decide how hot, cold, wet, or windy it might be!

Date:

Astronomy

Jan. 23, 2015 Rise Set
Actual Time 7:09 AM PST 5:04 PM PST
Civil Twilight 6:40 AM PST 5:33 PM PST
Nautical Twilight 6:07 AM PST 6:06 PM PST
Astronomical Twilight 5:35 AM PST 6:37 PM PST
Moon 9:05 AM PST (1/23) 9:18 PM PST (1/23)
Length of Visible Light 10h 53m
Length of Day
9h 55m
Waxing Crescent, 15% of the Moon is Illuminated
Jan 23
Waxing Crescent
Jan 26
First Quarter
Feb 3
Full
Feb 11
Last Quarter
Feb 18
New

Hourly Weather History & Observations

Time (PST) Temp. Windchill Dew Point Humidity Pressure Visibility Wind Dir Wind Speed Gust Speed Precip Events Conditions
12:56 AM 21.0 °F 12.4 °F 9.0 °F 60% 30.32 in 10.0 mi South 6.9 mph - N/A   Clear
1:56 AM 21.0 °F 13.4 °F 10.0 °F 63% 30.32 in 10.0 mi SSW 5.8 mph - N/A   Clear
2:56 AM 21.9 °F 17.2 °F 10.9 °F 63% 30.33 in 10.0 mi SSW 3.5 mph - N/A   Clear
3:56 AM 21.0 °F 16.2 °F 12.0 °F 68% 30.34 in 10.0 mi South 3.5 mph - N/A   Clear
4:56 AM 18.0 °F 11.1 °F 8.1 °F 65% 30.33 in 10.0 mi SSE 4.6 mph - N/A   Clear
5:56 AM 19.0 °F 13.9 °F 9.0 °F 65% 30.34 in 10.0 mi South 3.5 mph - N/A   Clear
6:17 AM 18.0 °F 11.1 °F 8.1 °F 65% 30.48 in 10.0 mi South 4.6 mph - N/A   Clear
6:56 AM 15.1 °F 4.2 °F 7.0 °F 70% 30.35 in 10.0 mi South 8.1 mph - N/A   Clear
7:56 AM 21.0 °F - 10.0 °F 63% 30.39 in 10.0 mi Calm Calm - N/A   Clear
8:56 AM 28.9 °F - 18.0 °F 64% 30.40 in 10.0 mi Calm Calm - N/A   Clear
9:56 AM 37.0 °F 34.5 °F 18.0 °F 46% 30.43 in 10.0 mi North 3.5 mph - N/A   Partly Cloudy
10:56 AM 39.9 °F 37.8 °F 17.1 °F 40% 30.42 in 10.0 mi WNW 3.5 mph - N/A   Partly Cloudy
11:56 AM 45.0 °F 42.6 °F 18.0 °F 34% 30.40 in 10.0 mi Variable 4.6 mph - N/A   Partly Cloudy
12:56 PM 46.9 °F - 17.1 °F 30% 30.38 in 10.0 mi Calm Calm - N/A   Partly Cloudy
1:56 PM 48.9 °F - 16.0 °F 27% 30.34 in 10.0 mi Calm Calm - N/A   Partly Cloudy
2:56 PM 50.0 °F - 15.1 °F 25% 30.34 in 10.0 mi NNW 4.6 mph - N/A   Partly Cloudy
3:56 PM 51.1 °F - 15.1 °F 24% 30.34 in 10.0 mi NNE 6.9 mph - N/A   Partly Cloudy
4:56 PM 46.9 °F - 14.0 °F 27% 30.34 in 10.0 mi NE 4.6 mph - N/A   Partly Cloudy
5:56 PM 41.0 °F 39.0 °F 15.1 °F 35% 30.35 in 10.0 mi ENE 3.5 mph - N/A   Partly Cloudy
6:56 PM 37.0 °F 34.5 °F 14.0 °F 39% 30.36 in 10.0 mi ENE 3.5 mph - N/A   Partly Cloudy
7:56 PM 32.0 °F 27.5 °F 12.0 °F 44% 30.37 in 10.0 mi SSE 4.6 mph - N/A   Partly Cloudy
8:56 PM 30.0 °F 26.5 °F 12.0 °F 47% 30.37 in 10.0 mi South 3.5 mph - N/A   Partly Cloudy
9:56 PM 26.1 °F 16.8 °F 10.0 °F 51% 30.37 in 10.0 mi SSE 9.2 mph - N/A   Partly Cloudy
10:56 PM 27.0 °F 20.5 °F 12.0 °F 53% 30.37 in 10.0 mi SSE 5.8 mph - N/A   Clear
11:56 PM 26.1 °F 21.9 °F 10.9 °F 53% 30.36 in 10.0 mi South 3.5 mph - N/A   Clear